,,,PA_Meas_PMT16A,,PR_Meas_QMR101_102,,RH_Meas_QMH101,,SR_Meas_QMS101,,TA_Meas_QMH101,,GenWind,,GenWind,
date,time,status,PA,status,PR,status,RH,status,SR,status,TA,status,DirAvg,status,SpdAvg,
2014-02-07, 00:00:04,VALID,1007.48,VALID,0,VALID,103.748,VALID,0,VALID,24.5905,VALID,311,VALID,0,
2014-02-07, 00:01:04,VALID,1007.49,VALID,0,VALID,103.87,VALID,0,VALID,24.5515,VALID,311,VALID,0,
2014-02-07, 00:02:04,VALID,1007.44,VALID,0,VALID,104,VALID,0.112112,VALID,24.5496,VALID,311,VALID,0,
2014-02-07, 00:03:04,VALID,1007.42,VALID,0,VALID,104,VALID,0.112112,VALID,24.5496,VALID,311,VALID,0,
2014-02-07, 00:04:04,VALID,1007.42,VALID,0,VALID,104,VALID,0.112112,VALID,24.5691,VALID,311,VALID,0,
2014-02-07, 00:05:04,VALID,1007.43,VALID,0,VALID,104,VALID,0.112112,VALID,24.5691,VALID,311,VALID,0,
2014-02-07, 00:06:04,VALID,1007.41,VALID,0,VALID,104,VALID,0.112112,VALID,24.5691,VALID,311,VALID,0,
2014-02-07, 00:07:04,VALID,1007.45,VALID,0,VALID,104,VALID,0,VALID,24.5886,VALID,311,VALID,0,
2014-02-07, 00:08:04,VALID,1007.43,VALID,0,VALID,104,VALID,0.112112,VALID,24.6276,VALID,311,VALID,0,
2014-02-07, 00:09:04,VALID,1007.45,VALID,0,VALID,104,VALID,0.112112,VALID,24.6276,VALID,311,VALID,0,
2014-02-07, 00:10:04,VALID,1007.45,VALID,0,VALID,104,VALID,0.112112,VALID,24.6471,VALID,311,VALID,0,
2014-02-07, 00:11:04,VALID,1007.44,VALID,0,VALID,104,VALID,0,VALID,24.6257,VALID,311,VALID,0,
2014-02-07, 00:12:04,VALID,1007.4,VALID,0,VALID,104,VALID,0,VALID,24.6276,VALID,310,VALID,0,
2014-02-07, 00:13:04,VALID,1007.43,VALID,0,VALID,104,VALID,0,VALID,24.6081,VALID,311,VALID,0,
2014-02-07, 00:14:04,VALID,1007.38,VALID,0,VALID,104,VALID,0.112112,VALID,24.6081,VALID,311,VALID,0,
2014-02-07, 00:15:04,VALID,1007.36,VALID,0,VALID,104,VALID,0.112112,VALID,24.5886,VALID,310,VALID,0,
2014-02-07, 00:16:04,VALID,1007.35,VALID,0,VALID,104,VALID,0.112112,VALID,24.5886,VALID,311,VALID,0,
2014-02-07, 00:17:04,VALID,1007.28,VALID,0,VALID,104,VALID,0,VALID,24.5496,VALID,311,VALID,0,
2014-02-07, 00:18:04,VALID,1007.27,VALID,0,VALID,104,VALID,0,VALID,24.571,VALID,311,VALID,0,
2014-02-07, 00:19:04,VALID,1007.23,VALID,0,VALID,104,VALID,0,VALID,24.571,VALID,311,VALID,0,
2014-02-07, 00:20:04,VALID,1007.19,VALID,0,VALID,104,VALID,0,VALID,24.571,VALID,311,VALID,0,
2014-02-07, 00:21:04,VALID,1007.16,VALID,0,VALID,104,VALID,0,VALID,24.5691,VALID,311,VALID,0,
2014-02-07, 00:22:04,VALID,1007.11,VALID,0,VALID,104,VALID,0,VALID,24.571,VALID,295,VALID,0,
2014-02-07, 00:23:04,VALID,1007.11,VALID,0,VALID,104,VALID,0,VALID,24.5905,VALID,258,VALID,0,
2014-02-07, 00:24:04,VALID,1007.09,VALID,0,VALID,104,VALID,0,VALID,24.5905,VALID,258,VALID,0,
2014-02-07, 00:25:04,VALID,1007.06,VALID,0,VALID,104,VALID,0,VALID,24.5496,VALID,258,VALID,0,
2014-02-07, 00:26:04,VALID,1007.05,VALID,0,VALID,104,VALID,0,VALID,24.532,VALID,258,VALID,0,
2014-02-07, 00:27:04,VALID,1007.03,VALID,0,VALID,104,VALID,0,VALID,24.5125,VALID,258,VALID,0,
2014-02-07, 00:28:04,VALID,1007.03,VALID,0,VALID,104,VALID,0,VALID,24.493,VALID,258,VALID,0,
2014-02-07, 00:29:04,VALID,1007,VALID,0,VALID,104,VALID,0,VALID,24.4717,VALID,258,VALID,0,
2014-02-07, 00:30:04,VALID,1006.97,VALID,0,VALID,104,VALID,0,VALID,24.4327,VALID,258,VALID,0,
2014-02-07, 00:31:04,VALID,1006.98,VALID,0,VALID,104,VALID,0,VALID,24.4345,VALID,257,VALID,0,
2014-02-07, 00:32:04,VALID,1006.96,VALID,0,VALID,104,VALID,0,VALID,24.4327,VALID,258,VALID,0,
2014-02-07, 00:33:04,VALID,1006.92,VALID,0,VALID,104,VALID,0,VALID,24.4345,VALID,257,VALID,0,
2014-02-07, 00:34:04,VALID,1006.91,VALID,0,VALID,104,VALID,0,VALID,24.4132,VALID,258,VALID,0,
2014-02-07, 00:35:04,VALID,1006.9,VALID,0,VALID,104,VALID,0,VALID,24.4345,VALID,258,VALID,0,
2014-02-07, 00:36:04,VALID,1006.87,VALID,0,VALID,104,VALID,0,VALID,24.4345,VALID,259,VALID,0,
2014-02-07, 00:37:04,VALID,1006.87,VALID,0,VALID,104,VALID,0,VALID,24.4735,VALID,259,VALID,0,
2014-02-07, 00:38:04,VALID,1006.9,VALID,0,VALID,104,VALID,0,VALID,24.4327,VALID,258,VALID,0,
2014-02-07, 00:39:04,VALID,1006.87,VALID,0,VALID,104,VALID,0,VALID,24.454,VALID,258,VALID,0,
2014-02-07, 00:40:04,VALID,1006.89,VALID,0,VALID,104,VALID,0,VALID,24.4345,VALID,258,VALID,0,
2014-02-07, 00:41:04,VALID,1006.89,VALID,0,VALID,104,VALID,0,VALID,24.454,VALID,257,VALID,0,
2014-02-07, 00:42:04,VALID,1006.9,VALID,0,VALID,104,VALID,0,VALID,24.4132,VALID,258,VALID,0,
2014-02-07, 00:43:04,VALID,1006.92,VALID,0,VALID,104,VALID,0,VALID,24.4327,VALID,299,VALID,0,
2014-02-07, 00:44:04,VALID,1006.95,VALID,0,VALID,104,VALID,0,VALID,24.4735,VALID,312,VALID,0,
2014-02-07, 00:45:04,VALID,1006.95,VALID,0,VALID,104,VALID,0,VALID,24.4717,VALID,311,VALID,0,
2014-02-07, 00:46:04,VALID,1006.96,VALID,0,VALID,104,VALID,0,VALID,24.493,VALID,311,VALID,0,
2014-02-07, 00:47:04,VALID,1006.95,VALID,0,VALID,104,VALID,0,VALID,24.493,VALID,304,VALID,0,
2014-02-07, 00:48:04,VALID,1006.96,VALID,0,VALID,104,VALID,0,VALID,24.5125,VALID,304,VALID,0,
2014-02-07, 00:49:04,VALID,1006.95,VALID,0,VALID,104,VALID,0,VALID,24.4735,VALID,305,VALID,0,
2014-02-07, 00:50:04,VALID,1006.95,VALID,0,VALID,104,VALID,0,VALID,24.532,VALID,312,VALID,0,
2014-02-07, 00:51:04,VALID,1006.98,VALID,0,VALID,104,VALID,0,VALID,24.5125,VALID,311,VALID,0,
2014-02-07, 00:52:04,VALID,1006.97,VALID,0,VALID,104,VALID,0,VALID,24.5125,VALID,312,VALID,0,
2014-02-07, 00:53:04,VALID,1006.97,VALID,0,VALID,104,VALID,0,VALID,24.5125,VALID,311,VALID,0,
2014-02-07, 00:54:04,VALID,1006.98,VALID,0,VALID,104,VALID,0,VALID,24.493,VALID,312,VALID,0,
2014-02-07, 00:55:04,VALID,1006.99,VALID,0,VALID,104,VALID,0,VALID,24.454,VALID,311,VALID,0,
2014-02-07, 00:56:04,VALID,1006.95,VALID,0,VALID,104,VALID,0,VALID,24.454,VALID,311,VALID,0,
2014-02-07, 00:57:04,VALID,1006.98,VALID,0,VALID,104,VALID,0,VALID,24.415,VALID,311,VALID,0,
2014-02-07, 00:58:04,VALID,1006.96,VALID,0,VALID,104,VALID,0,VALID,24.415,VALID,312,VALID,0,
2014-02-07, 00:59:04,VALID,1006.93,VALID,0,VALID,104,VALID,0,VALID,24.4345,VALID,312,VALID,0,
2014-02-07, 01:00:04,VALID,1006.91,VALID,0,VALID,104,VALID,0,VALID,24.4364,VALID,312,VALID,0,
2014-02-07, 01:01:04,VALID,1006.88,VALID,0,VALID,104,VALID,0,VALID,24.4169,VALID,312,VALID,0,
2014-02-07, 01:02:04,VALID,1006.9,VALID,0,VALID,104,VALID,0,VALID,24.415,VALID,311,VALID,0,
2014-02-07, 01:03:04,VALID,1006.88,VALID,0,VALID,104,VALID,0,VALID,24.415,VALID,312,VALID,0,
2014-02-07, 01:04:04,VALID,1006.89,VALID,0,VALID,104,VALID,0,VALID,24.4345,VALID,312,VALID,0,
2014-02-07, 01:05:04,VALID,1006.89,VALID,0,VALID,104,VALID,0,VALID,24.415,VALID,311,VALID,0,
2014-02-07, 01:06:04,VALID,1006.9,VALID,0,VALID,104,VALID,0,VALID,24.4132,VALID,312,VALID,0,
2014-02-07, 01:07:04,VALID,1006.89,VALID,0,VALID,104,VALID,0,VALID,24.4735,VALID,311,VALID,0,
2014-02-07, 01:08:04,VALID,1006.87,VALID,0,VALID,104,VALID,0,VALID,24.4735,VALID,312,VALID,0,
2014-02-07, 01:09:04,VALID,1006.86,VALID,0,VALID,104,VALID,0,VALID,24.4735,VALID,311,VALID,0,
2014-02-07, 01:10:04,VALID,1006.87,VALID,0,VALID,104,VALID,0,VALID,24.4735,VALID,311,VALID,0,
2014-02-07, 01:11:04,VALID,1006.88,VALID,0,VALID,104,VALID,0,VALID,24.493,VALID,311,VALID,0,
2014-02-07, 01:12:04,VALID,1006.85,VALID,0,VALID,104,VALID,0,VALID,24.493,VALID,311,VALID,0,
2014-02-07, 01:13:04,VALID,1006.82,VALID,0,VALID,104,VALID,0,VALID,24.493,VALID,312,VALID,0,
2014-02-07, 01:14:04,VALID,1006.81,VALID,0,VALID,104,VALID,0,VALID,24.493,VALID,311,VALID,0,
2014-02-07, 01:15:04,VALID,1006.82,VALID,0,VALID,104,VALID,0,VALID,24.5515,VALID,312,VALID,0,
2014-02-07, 01:16:04,VALID,1006.78,VALID,0,VALID,104,VALID,0,VALID,24.532,VALID,312,VALID,0,
2014-02-07, 01:17:04,VALID,1006.79,VALID,0,VALID,104,VALID,0,VALID,24.5515,VALID,311,VALID,0,
2014-02-07, 01:18:04,VALID,1006.76,VALID,0,VALID,104,VALID,0,VALID,24.532,VALID,312,VALID,0,
2014-02-07, 01:19:04,VALID,1006.76,VALID,0,VALID,104,VALID,0,VALID,24.571,VALID,311,VALID,0,
2014-02-07, 01:20:04,VALID,1006.76,VALID,0,VALID,104,VALID,0,VALID,24.5515,VALID,312,VALID,0,
2014-02-07, 01:21:04,VALID,1006.77,VALID,0,VALID,104,VALID,0,VALID,24.571,VALID,312,VALID,0,
2014-02-07, 01:22:04,VALID,1006.78,VALID,0,VALID,104,VALID,0,VALID,24.571,VALID,300,VALID,0,
2014-02-07, 01:23:04,VALID,1006.8,VALID,0,VALID,104,VALID,0,VALID,24.5905,VALID,263,VALID,0,
2014-02-07, 01:24:04,VALID,1006.8,VALID,0,VALID,104,VALID,0,VALID,24.6099,VALID,262,VALID,0,
2014-02-07, 01:25:04,VALID,1006.79,VALID,0,VALID,104,VALID,0,VALID,24.571,VALID,261,VALID,0,
2014-02-07, 01:26:04,VALID,1006.78,VALID,0,VALID,104,VALID,0,VALID,24.6118,VALID,261,VALID,0,
2014-02-07, 01:27:04,VALID,1006.8,VALID,0,VALID,104,VALID,0,VALID,24.571,VALID,263,VALID,0,
2014-02-07, 01:28:04,VALID,1006.83,VALID,0,VALID,104,VALID,0,VALID,24.571,VALID,260,VALID,0,
2014-02-07, 01:29:04,VALID,1006.85,VALID,0,VALID,104,VALID,0,VALID,24.571,VALID,262,VALID,0,
2014-02-07, 01:30:04,VALID,1006.85,VALID,0,VALID,104,VALID,0,VALID,24.571,VALID,261,VALID,0,
2014-02-07, 01:31:04,VALID,1006.87,VALID,0,VALID,104,VALID,0,VALID,24.5515,VALID,262,VALID,0,
2014-02-07, 01:32:04,VALID,1006.84,VALID,0,VALID,104,VALID,0,VALID,24.532,VALID,261,VALID,0,
2014-02-07, 01:33:04,VALID,1006.85,VALID,0,VALID,104,VALID,0,VALID,24.532,VALID,262,VALID,0,
2014-02-07, 01:34:04,VALID,1006.83,VALID,0,VALID,104,VALID,0,VALID,24.5125,VALID,261,VALID,0,
2014-02-07, 01:35:04,VALID,1006.83,VALID,0,VALID,104,VALID,0,VALID,24.532,VALID,261,VALID,0,
2014-02-07, 01:36:04,VALID,1006.8,VALID,0,VALID,104,VALID,0,VALID,24.532,VALID,262,VALID,0,
2014-02-07, 01:37:04,VALID,1006.81,VALID,0,VALID,104,VALID,0,VALID,24.532,VALID,261,VALID,0,
2014-02-07, 01:38:04,VALID,1006.77,VALID,0,VALID,104,VALID,0,VALID,24.5338,VALID,262,VALID,0,
2014-02-07, 01:39:04,VALID,1006.79,VALID,0,VALID,104,VALID,0,VALID,24.493,VALID,261,VALID,0,
2014-02-07, 01:40:04,VALID,1006.79,VALID,0,VALID,104,VALID,0,VALID,24.493,VALID,261,VALID,0,
2014-02-07, 01:41:04,VALID,1006.81,VALID,0,VALID,104,VALID,0,VALID,24.493,VALID,261,VALID,0,
2014-02-07, 01:42:04,VALID,1006.83,VALID,0,VALID,104,VALID,0,VALID,24.4735,VALID,261,VALID,0,
2014-02-07, 01:43:04,VALID,1006.83,VALID,0,VALID,104,VALID,0,VALID,24.4754,VALID,261,VALID,0,
2014-02-07, 01:44:04,VALID,1006.84,VALID,0,VALID,104,VALID,0,VALID,24.4735,VALID,261,VALID,0,
2014-02-07, 01:45:04,VALID,1006.85,VALID,0,VALID,104,VALID,0,VALID,24.4735,VALID,261,VALID,0,
2014-02-07, 01:46:04,VALID,1006.85,VALID,0,VALID,104,VALID,0,VALID,24.4345,VALID,261,VALID,0,
2014-02-07, 01:47:04,VALID,1006.83,VALID,0,VALID,104,VALID,0,VALID,24.4522,VALID,264,VALID,0,
2014-02-07, 01:48:04,VALID,1006.82,VALID,0,VALID,104,VALID,0,VALID,24.4522,VALID,286,VALID,0,
2014-02-07, 01:49:04,VALID,1006.81,VALID,0,VALID,104,VALID,0,VALID,24.4735,VALID,285,VALID,0,
2014-02-07, 01:50:04,VALID,1006.83,VALID,0,VALID,104,VALID,0,VALID,24.4522,VALID,286,VALID,0,
2014-02-07, 01:51:04,VALID,1006.82,VALID,0,VALID,104,VALID,0,VALID,24.4522,VALID,294,VALID,0,
2014-02-07, 01:52:04,VALID,1006.79,VALID,0,VALID,104,VALID,0.112112,VALID,24.4522,VALID,301,VALID,0,
2014-02-07, 01:53:04,VALID,1006.81,VALID,0,VALID,104,VALID,0.112112,VALID,24.4132,VALID,301,VALID,0,
2014-02-07, 01:54:04,VALID,1006.81,VALID,0,VALID,104,VALID,0,VALID,24.4345,VALID,301,VALID,0,
2014-02-07, 01:55:04,VALID,1006.81,VALID,0,VALID,104,VALID,0,VALID,24.3937,VALID,301,VALID,0,
2014-02-07, 01:56:04,VALID,1006.8,VALID,0,VALID,104,VALID,0,VALID,24.3937,VALID,301,VALID,0,
2014-02-07, 01:57:04,VALID,1006.81,VALID,0,VALID,104,VALID,0.112112,VALID,24.4132,VALID,301,VALID,0,
2014-02-07, 01:58:04,VALID,1006.84,VALID,0,VALID,104,VALID,0.112112,VALID,24.3937,VALID,301,VALID,0,
2014-02-07, 01:59:04,VALID,1006.85,VALID,0,VALID,104,VALID,0,VALID,24.4132,VALID,301,VALID,0,
2014-02-07, 02:00:04,VALID,1006.84,VALID,0,VALID,104,VALID,0,VALID,24.415,VALID,301,VALID,0,
2014-02-07, 02:01:04,VALID,1006.84,VALID,0,VALID,104,VALID,0.112112,VALID,24.3742,VALID,335,VALID,0,
2014-02-07, 02:02:04,VALID,1006.82,VALID,0,VALID,104,VALID,0,VALID,24.3742,VALID,357,VALID,0,
2014-02-07, 02:03:04,VALID,1006.83,VALID,0,VALID,104,VALID,0,VALID,24.3742,VALID,357,VALID,0,
2014-02-07, 02:04:04,VALID,1006.83,VALID,0,VALID,104,VALID,0.112112,VALID,24.3352,VALID,357,VALID,0,
2014-02-07, 02:05:04,VALID,1006.8,VALID,0,VALID,104,VALID,0,VALID,24.3371,VALID,357,VALID,0,
2014-02-07, 02:06:04,VALID,1006.84,VALID,0,VALID,104,VALID,0,VALID,24.3352,VALID,357,VALID,0,
2014-02-07, 02:07:04,VALID,1006.81,VALID,0,VALID,104,VALID,0,VALID,24.3352,VALID,357,VALID,0,
2014-02-07, 02:08:04,VALID,1006.82,VALID,0,VALID,104,VALID,0,VALID,24.3352,VALID,357,VALID,0,
2014-02-07, 02:09:04,VALID,1006.8,VALID,0,VALID,104,VALID,0,VALID,24.3566,VALID,357,VALID,0,
2014-02-07, 02:10:04,VALID,1006.79,VALID,0,VALID,104,VALID,0,VALID,24.3352,VALID,357,VALID,0,
2014-02-07, 02:11:04,VALID,1006.78,VALID,0,VALID,104,VALID,0,VALID,24.3547,VALID,357,VALID,0,
2014-02-07, 02:12:04,VALID,1006.79,VALID,0,VALID,104,VALID,0.112112,VALID,24.3742,VALID,357,VALID,0,
2014-02-07, 02:13:04,VALID,1006.77,VALID,0,VALID,104,VALID,0,VALID,24.3547,VALID,357,VALID,0,
2014-02-07, 02:14:04,VALID,1006.77,VALID,0,VALID,104,VALID,0,VALID,24.3158,VALID,357,VALID,0,
2014-02-07, 02:15:04,VALID,1006.77,VALID,0,VALID,104,VALID,0.112112,VALID,24.2768,VALID,357,VALID,0,
2014-02-07, 02:16:04,VALID,1006.73,VALID,0,VALID,104,VALID,0,VALID,24.2573,VALID,357,VALID,0,
2014-02-07, 02:17:04,VALID,1006.75,VALID,0,VALID,104,VALID,0,VALID,24.2415,VALID,357,VALID,0,
2014-02-07, 02:18:04,VALID,1006.74,VALID,0,VALID,104,VALID,0,VALID,24.1812,VALID,357,VALID,0,
2014-02-07, 02:19:04,VALID,1006.71,VALID,0,VALID,104,VALID,0,VALID,24.1032,VALID,357,VALID,0,
2014-02-07, 02:20:04,VALID,1006.71,VALID,0,VALID,104,VALID,0,VALID,24.0661,VALID,357,VALID,0,
2014-02-07, 02:21:04,VALID,1006.69,VALID,0,VALID,104,VALID,0,VALID,24.0271,VALID,357,VALID,0,
2014-02-07, 02:22:04,VALID,1006.68,VALID,0,VALID,104,VALID,0,VALID,24.0058,VALID,357,VALID,0,
2014-02-07, 02:23:04,VALID,1006.66,VALID,0,VALID,104,VALID,0,VALID,24.0058,VALID,357,VALID,0,
2014-02-07, 02:24:04,VALID,1006.63,VALID,0,VALID,104,VALID,0,VALID,24.0058,VALID,357,VALID,0,
2014-02-07, 02:25:04,VALID,1006.6,VALID,0,VALID,104,VALID,0,VALID,24.0253,VALID,357,VALID,0,
2014-02-07, 02:26:04,VALID,1006.58,VALID,0,VALID,104,VALID,0,VALID,24.0448,VALID,357,VALID,0,
2014-02-07, 02:27:04,VALID,1006.58,VALID,0,VALID,104,VALID,0,VALID,24.0643,VALID,357,VALID,0,
2014-02-07, 02:28:04,VALID,1006.58,VALID,0,VALID,104,VALID,0,VALID,24.0643,VALID,357,VALID,0,
2014-02-07, 02:29:04,VALID,1006.56,VALID,0,VALID,104,VALID,0,VALID,24.0837,VALID,357,VALID,0,
2014-02-07, 02:30:04,VALID,1006.55,VALID,0,VALID,104,VALID,0,VALID,24.0448,VALID,357,VALID,0,
2014-02-07, 02:31:04,VALID,1006.53,VALID,0,VALID,104,VALID,0,VALID,24.0448,VALID,357,VALID,0,
2014-02-07, 02:32:04,VALID,1006.54,VALID,0,VALID,104,VALID,0,VALID,24.0448,VALID,357,VALID,0,
2014-02-07, 02:33:04,VALID,1006.52,VALID,0,VALID,104,VALID,0,VALID,24.0643,VALID,357,VALID,0,
2014-02-07, 02:34:04,VALID,1006.54,VALID,0,VALID,104,VALID,0,VALID,24.0643,VALID,357,VALID,0,
2014-02-07, 02:35:04,VALID,1006.51,VALID,0,VALID,104,VALID,0,VALID,24.0837,VALID,357,VALID,0,
2014-02-07, 02:36:04,VALID,1006.53,VALID,0,VALID,104,VALID,0,VALID,24.0837,VALID,357,VALID,0,
2014-02-07, 02:37:04,VALID,1006.55,VALID,0,VALID,104,VALID,0,VALID,24.1032,VALID,357,VALID,0,
2014-02-07, 02:38:04,VALID,1006.56,VALID,0,VALID,104,VALID,0,VALID,24.1051,VALID,357,VALID,0,
2014-02-07, 02:39:04,VALID,1006.58,VALID,0,VALID,104,VALID,0,VALID,24.0837,VALID,357,VALID,0,
2014-02-07, 02:40:04,VALID,1006.59,VALID,0,VALID,104,VALID,0,VALID,24.0448,VALID,357,VALID,0,
2014-02-07, 02:41:04,VALID,1006.55,VALID,0,VALID,104,VALID,0,VALID,24.0448,VALID,357,VALID,0,
2014-02-07, 02:42:04,VALID,1006.53,VALID,0,VALID,104,VALID,0,VALID,24.0837,VALID,357,VALID,0,
2014-02-07, 02:43:04,VALID,1006.49,VALID,0,VALID,104,VALID,0,VALID,24.0643,VALID,357,VALID,0,
2014-02-07, 02:44:04,VALID,1006.47,VALID,0,VALID,104,VALID,0,VALID,24.0253,VALID,357,VALID,0,
2014-02-07, 02:45:04,VALID,1006.43,VALID,0,VALID,104,VALID,0,VALID,24.0058,VALID,357,VALID,0,
2014-02-07, 02:46:04,VALID,1006.46,VALID,0,VALID,104,VALID,0,VALID,24.0058,VALID,357,VALID,0,
2014-02-07, 02:47:04,VALID,1006.45,VALID,0,VALID,104,VALID,0,VALID,23.9845,VALID,357,VALID,0,
2014-02-07, 02:48:04,VALID,1006.41,VALID,0,VALID,104,VALID,0,VALID,24.0058,VALID,357,VALID,0,
2014-02-07, 02:49:04,VALID,1006.42,VALID,0,VALID,104,VALID,0,VALID,23.9863,VALID,357,VALID,0,
2014-02-07, 02:50:04,VALID,1006.42,VALID,0,VALID,104,VALID,0,VALID,23.9668,VALID,357,VALID,0,
2014-02-07, 02:51:04,VALID,1006.38,VALID,0,VALID,104,VALID,0,VALID,23.9065,VALID,357,VALID,0,
2014-02-07, 02:52:04,VALID,1006.43,VALID,0,VALID,104,VALID,0,VALID,23.9473,VALID,357,VALID,0,
2014-02-07, 02:53:04,VALID,1006.42,VALID,0,VALID,104,VALID,0,VALID,23.9084,VALID,357,VALID,0,
2014-02-07, 02:54:04,VALID,1006.48,VALID,0,VALID,104,VALID,0,VALID,23.8889,VALID,357,VALID,0,
2014-02-07, 02:55:04,VALID,1006.44,VALID,0,VALID,104,VALID,0,VALID,23.9084,VALID,357,VALID,0,
2014-02-07, 02:56:04,VALID,1006.45,VALID,0,VALID,104,VALID,0,VALID,23.8871,VALID,357,VALID,0,
2014-02-07, 02:57:04,VALID,1006.44,VALID,0,VALID,104,VALID,0,VALID,23.926,VALID,357,VALID,0,
2014-02-07, 02:58:04,VALID,1006.44,VALID,0,VALID,104,VALID,0.112112,VALID,23.9065,VALID,357,VALID,0,
2014-02-07, 02:59:04,VALID,1006.45,VALID,0,VALID,104,VALID,0,VALID,23.9473,VALID,357,VALID,0,
2014-02-07, 03:00:04,VALID,1006.46,VALID,0,VALID,104,VALID,0,VALID,23.9278,VALID,357,VALID,0,
2014-02-07, 03:01:04,VALID,1006.47,VALID,0,VALID,104,VALID,0,VALID,23.9084,VALID,357,VALID,0,
2014-02-07, 03:02:04,VALID,1006.52,VALID,0,VALID,104,VALID,0,VALID,23.9278,VALID,357,VALID,0,
2014-02-07, 03:03:04,VALID,1006.52,VALID,0,VALID,104,VALID,0,VALID,23.926,VALID,357,VALID,0,
2014-02-07, 03:04:04,VALID,1006.53,VALID,0,VALID,104,VALID,0,VALID,23.9065,VALID,357,VALID,0,
2014-02-07, 03:05:04,VALID,1006.54,VALID,0,VALID,104,VALID,0.112112,VALID,23.9065,VALID,357,VALID,0,
2014-02-07, 03:06:04,VALID,1006.56,VALID,0,VALID,104,VALID,0,VALID,23.926,VALID,357,VALID,0,
2014-02-07, 03:07:04,VALID,1006.57,VALID,0,VALID,104,VALID,0,VALID,23.9473,VALID,357,VALID,0,
2014-02-07, 03:08:04,VALID,1006.56,VALID,0,VALID,104,VALID,0,VALID,23.9455,VALID,357,VALID,0,
2014-02-07, 03:09:04,VALID,1006.62,VALID,0,VALID,104,VALID,0,VALID,24.004,VALID,357,VALID,0,
2014-02-07, 03:10:04,VALID,1006.6,VALID,0,VALID,104,VALID,0,VALID,24.0235,VALID,357,VALID,0,
2014-02-07, 03:11:04,VALID,1006.61,VALID,0,VALID,104,VALID,0,VALID,24.0448,VALID,357,VALID,0,
2014-02-07, 03:12:04,VALID,1006.61,VALID,0,VALID,104,VALID,0,VALID,24.0624,VALID,357,VALID,0,
2014-02-07, 03:13:04,VALID,1006.61,VALID,0,VALID,104,VALID,0,VALID,24.1032,VALID,357,VALID,0,
2014-02-07, 03:14:04,VALID,1006.61,VALID,0,VALID,104,VALID,0,VALID,24.1032,VALID,357,VALID,0,
2014-02-07, 03:15:04,VALID,1006.59,VALID,0,VALID,104,VALID,0,VALID,24.0837,VALID,357,VALID,0,
2014-02-07, 03:16:04,VALID,1006.57,VALID,0,VALID,104,VALID,0,VALID,24.1032,VALID,357,VALID,0,
2014-02-07, 03:17:04,VALID,1006.56,VALID,0,VALID,104,VALID,0,VALID,24.1014,VALID,323,VALID,0,
2014-02-07, 03:18:04,VALID,1006.55,VALID,0,VALID,104,VALID,0,VALID,24.1422,VALID,310,VALID,0,
2014-02-07, 03:19:04,VALID,1006.55,VALID,0,VALID,104,VALID,0,VALID,24.1014,VALID,309,VALID,0,
2014-02-07, 03:20:04,VALID,1006.55,VALID,0,VALID,104,VALID,0,VALID,24.1014,VALID,310,VALID,0,
2014-02-07, 03:21:04,VALID,1006.51,VALID,0,VALID,104,VALID,0.112112,VALID,24.1209,VALID,309,VALID,0,
2014-02-07, 03:22:04,VALID,1006.53,VALID,0,VALID,104,VALID,0,VALID,24.1227,VALID,310,VALID,0,
2014-02-07, 03:23:04,VALID,1006.51,VALID,0,VALID,104,VALID,0,VALID,24.1227,VALID,310,VALID,0,
2014-02-07, 03:24:04,VALID,1006.49,VALID,0,VALID,104,VALID,0,VALID,24.1032,VALID,309,VALID,0,
2014-02-07, 03:25:04,VALID,1006.52,VALID,0,VALID,104,VALID,0,VALID,24.1227,VALID,310,VALID,0,
2014-02-07, 03:26:04,VALID,1006.5,VALID,0,VALID,104,VALID,0,VALID,24.1014,VALID,310,VALID,0,
2014-02-07, 03:27:04,VALID,1006.52,VALID,0,VALID,104,VALID,0,VALID,24.1422,VALID,310,VALID,0,
2014-02-07, 03:28:04,VALID,1006.53,VALID,0,VALID,104,VALID,0,VALID,24.1032,VALID,309,VALID,0,
2014-02-07, 03:29:04,VALID,1006.5,VALID,0,VALID,104,VALID,0,VALID,24.1227,VALID,309,VALID,0,
2014-02-07, 03:30:04,VALID,1006.53,VALID,0,VALID,104,VALID,0,VALID,24.1227,VALID,310,VALID,0,
2014-02-07, 03:31:04,VALID,1006.51,VALID,0,VALID,104,VALID,0,VALID,24.1209,VALID,309,VALID,0,
2014-02-07, 03:32:04,VALID,1006.52,VALID,0,VALID,104,VALID,0,VALID,24.0819,VALID,310,VALID,0,
2014-02-07, 03:33:04,VALID,1006.51,VALID,0,VALID,104,VALID,0,VALID,24.0837,VALID,309,VALID,0,
2014-02-07, 03:34:04,VALID,1006.5,VALID,0,VALID,104,VALID,0,VALID,24.0235,VALID,309,VALID,0,
2014-02-07, 03:35:04,VALID,1006.5,VALID,0,VALID,104,VALID,0,VALID,24.004,VALID,309,VALID,0,
2014-02-07, 03:36:04,VALID,1006.52,VALID,0,VALID,104,VALID,0,VALID,24.0058,VALID,310,VALID,0,
2014-02-07, 03:37:04,VALID,1006.53,VALID,0,VALID,104,VALID,0,VALID,23.9065,VALID,310,VALID,0,
2014-02-07, 03:38:04,VALID,1006.53,VALID,0,VALID,104,VALID,0,VALID,23.8871,VALID,310,VALID,0,
2014-02-07, 03:39:04,VALID,1006.55,VALID,0,VALID,104,VALID,0,VALID,23.9278,VALID,309,VALID,0,
2014-02-07, 03:40:04,VALID,1006.58,VALID,0,VALID,104,VALID,0,VALID,23.9278,VALID,309,VALID,0,
2014-02-07, 03:41:04,VALID,1006.56,VALID,0,VALID,104,VALID,0,VALID,23.8694,VALID,309,VALID,0,
2014-02-07, 03:42:04,VALID,1006.61,VALID,0,VALID,104,VALID,0,VALID,23.8499,VALID,310,VALID,0,
2014-02-07, 03:43:04,VALID,1006.57,VALID,0,VALID,104,VALID,0,VALID,23.8304,VALID,310,VALID,0,
2014-02-07, 03:44:04,VALID,1006.59,VALID,0,VALID,104,VALID,0,VALID,23.8304,VALID,309,VALID,0,
2014-02-07, 03:45:04,VALID,1006.59,VALID,0,VALID,104,VALID,0,VALID,23.8286,VALID,310,VALID,0,
2014-02-07, 03:46:04,VALID,1006.58,VALID,0,VALID,104,VALID,0,VALID,23.8109,VALID,310,VALID,0,
2014-02-07, 03:47:04,VALID,1006.59,VALID,0,VALID,104,VALID,0,VALID,23.8304,VALID,309,VALID,0,
2014-02-07, 03:48:04,VALID,1006.62,VALID,0,VALID,104,VALID,0,VALID,23.8304,VALID,309,VALID,0,
2014-02-07, 03:49:04,VALID,1006.64,VALID,0,VALID,104,VALID,0,VALID,23.8304,VALID,310,VALID,0,
2014-02-07, 03:50:04,VALID,1006.64,VALID,0,VALID,104,VALID,0,VALID,23.8304,VALID,310,VALID,0,
2014-02-07, 03:51:04,VALID,1006.64,VALID,0,VALID,104,VALID,0,VALID,23.8304,VALID,310,VALID,0,
2014-02-07, 03:52:04,VALID,1006.64,VALID,0,VALID,104,VALID,0,VALID,23.8499,VALID,310,VALID,0,
2014-02-07, 03:53:04,VALID,1006.65,VALID,0,VALID,104,VALID,0,VALID,23.8694,VALID,309,VALID,0,
2014-02-07, 03:54:04,VALID,1006.65,VALID,0,VALID,104,VALID,0,VALID,23.9084,VALID,310,VALID,0,
2014-02-07, 03:55:04,VALID,1006.65,VALID,0,VALID,104,VALID,0,VALID,23.8694,VALID,310,VALID,0,
2014-02-07, 03:56:04,VALID,1006.64,VALID,0,VALID,104,VALID,0,VALID,23.8499,VALID,310,VALID,0,
2014-02-07, 03:57:04,VALID,1006.65,VALID,0,VALID,104,VALID,0,VALID,23.8499,VALID,310,VALID,0,
2014-02-07, 03:58:04,VALID,1006.65,VALID,0,VALID,104,VALID,0,VALID,23.8109,VALID,309,VALID,0,
2014-02-07, 03:59:04,VALID,1006.66,VALID,0,VALID,104,VALID,0,VALID,23.8109,VALID,310,VALID,0,
2014-02-07, 04:00:04,VALID,1006.65,VALID,0,VALID,104,VALID,0,VALID,23.7914,VALID,310,VALID,0,
2014-02-07, 04:01:04,VALID,1006.62,VALID,0,VALID,104,VALID,0,VALID,23.7525,VALID,310,VALID,0,
2014-02-07, 04:02:04,VALID,1006.65,VALID,0,VALID,104,VALID,0,VALID,23.772,VALID,310,VALID,0,
2014-02-07, 04:03:04,VALID,1006.63,VALID,0,VALID,104,VALID,0,VALID,23.772,VALID,309,VALID,0,
2014-02-07, 04:04:04,VALID,1006.61,VALID,0,VALID,104,VALID,0,VALID,23.7135,VALID,310,VALID,0,
2014-02-07, 04:05:04,VALID,1006.58,VALID,0,VALID,104,VALID,0,VALID,23.7135,VALID,310,VALID,0,
2014-02-07, 04:06:04,VALID,1006.6,VALID,0,VALID,104,VALID,0,VALID,23.694,VALID,309,VALID,0,
2014-02-07, 04:07:04,VALID,1006.55,VALID,0,VALID,104,VALID,0,VALID,23.6745,VALID,310,VALID,0,
2014-02-07, 04:08:04,VALID,1006.55,VALID,0,VALID,104,VALID,0.112112,VALID,23.733,VALID,310,VALID,0,